Location: Kerguer�zec
(48.4509°N, 4.7600°W)
Time: 23:45:29
(UTC+00:00)

Cosmos 1356 Rocket - Pass Details

Date: 09 April 2020
Orbit: 542 x 599 km, 81.2° (Epoch: 23 May)

Event Time Altitude Azimuth Distance (km) Brightness Sun altitude
Exits shadow 21:49:44 78° 305° (NW) 611 3.5 -24.6°
Drops below altitude 10° 21:53:53 10° 9° (N) 1,920 6.6 -25.0°
Sets 21:56:05 0° 11° (N) 2,816 7.5 -25.2°
